Back to catalog

STARLINK-34452

AliveCommunicationsVLEO
NORAD 64425·PAYLOAD·🇺🇸 United States

Launched Jun 17, 2025 from Vandenberg Space Force Base

Loading…

Next Passes (next 24 hours)

TLE

FreshSource: CelesTrak SupGP

Epoch: Sep 14, 2026, 14:38 UTC

1 64425C 25129P   26257.61020833  .00031638  00000+0  11017-2 0  2574
2 64425  69.9995 316.5870 0003253 274.6127 103.9636 15.29529869    17

Track STARLINK-34452 in real time with AllMySat

Download on the App Store